FENGYUN 1C DEB, 30505

Orbit data source: Space-Track

FENGYUN 1C DEB, 30505 is space debris in SSO originally from a launch on Mon, 10 May 1999 UTC launched from the Taiyaun Space Center, China (TSC). Fengyun 1C debris stems from the Chinese weather satellite Fengyun-1C, which was intentionally destroyed by a Chinese anti-satellite missile in 2007. This event dramatically increased the amount of space debris, with thousands of trackable fragments posing hazards to satellites and human spaceflight. The Fengyun 1C debris cloud has become a focal point in discussions about space sustainability and the need for international regulations to prevent the creation of new debris.

Loading next visibility...
Identifier
30505, 1999-025AHT
Orbit
SSO
Country
Flag of CNCN / PRC
Related business
Manufacturer
Unknown
Mission
Spacecraft
Bus & Motor
Unknown
Mass
Unknown
Launch date (UTC)
1999-05-10 (27 years ago)
Launch vehicle
Unknown
Launch site
Taiyaun Space Center, China (TSC)
Object type
Payload
Rocket body
Debris
Shape & HBR
Unknown shape, 0.1 m
Radar Cross Section
Small (<0.1 m²)

Expand to show TLE details & history
Last TLE update: 5 hours ago

TLE from 5 hours ago
0 FENGYUN 1C DEB
1 30505U 99025AHT 26124.20804353  .00002939  00000-0  12964-2 0  9995
2 30505  98.9152 210.6057 0064767 191.6128 196.7373 14.23014402989494
Epoch: 2026-05-04T04:59Z
TLE epoch observation values (Epoch: 2026-05-04T04:59:34.960Z)
Latitude
27.81055°
Longitude
-91.11178°
Altitude
863.231 km
Speed
7.4 km/s
True Right ascension
13h 43m 32s
True Declination
27° 40' 15"
Sunlit
Object was in full shadow at epoch
Visualization orbit readout
Latitude
Unknown
Longitude
Unknown
Altitude
Unknown
Speed
Unknown
Apparent Right ascension
Unknown
Apparent Declination
Unknown
Sunlit
N/A
Visualization observer readout
Local Sidereal Time
17:37:08
Azimuth
Unknown
Elevation
Unknown
Doppler factor
Unknown
Orbital elements
Apogee altitude
858.911 km
Perigee altitude
765.77 km
Semi-major axis
7,190.478 km
Eccentricity
0.00648
Inclination
98.9152°
RAAN
210.6057°
Arg. of periapsis
191.6128°
True anomaly
196.52521°
Mean anomaly
196.7373°
Eccentric anomaly
196.63109°
Mean motion
3.55964 °/min
Orbital period
101.13 mins
BSTAR
0.0012964
Loading maneuver chart data...
Computing Atmospheric mass density...

Documentation

Showing up to 5 results
|